CAPE
0 519 979 520 10 0 0 0 0 7 6 37 145 16 2 43 329 576 722 731 702 664 750 737 759 733 595 653 601 407 489 555 516 48 10 6 28 419 660 445 696 780 999
152 564 659 478 19 0 0 0 0 1 4 2 1 1 0 0 0 32 150 276 578 663 655 675 663 699 608 721 487 504 525 459 446 270 23 0 28 8 344 307 298 875 977
18 491 537 327 0 2 0 0 0 0 0 0 0 0 0 0 0 0 0 2 3 195 494 580 598 615 578 764 610 345 466 417 285 254 100 1 0 0 4 109 91 576 870
203 379 490 94 51 9 1 0 0 0 0 0 0 0 0 0 0 0 0 0 0 0 8 215 567 596 663 797 662 438 380 441 287 231 117 33 55 37 13 30 55 138 426
267 277 232 96 35 220 0 0 0 0 0 0 0 0 0 0 0 0 0 0 0 0 0 0 10 157 133 619 558 435 404 193 252 238 38 6 96 191 88 41 62 235 300
243 388 369 132 70 8 15 1 0 0 0 0 0 1 0 0 3 4 4 5 2 2 0 0 0 0 0 0 88 35 160 58 28 180 140 147 181 407 197 125 74 118 443
92 336 236 202 141 143 70 14 0 7 23 19 0 0 5 19 16 142 318 279 177 7 4 1 0 0 0 0 0 0 0 0 0 135 119 151 258 817 412 259 151 101 136
0 363 189 245 291 681 364 386 469 397 397 350 295 128 162 156 220 77 60 26 19 3 0 0 0 0 0 0 0 0 0 0 0 144 131 182 210 569 764 533 292 228 153
179 170 60 190 352 592 720 583 469 435 284 259 309 179 28 23 1 0 0 0 0 0 0 0 0 0 0 0 0 0 0 0 0 0 43 12 91 348 465 526 663 277 288
226 53 97 215 260 384 478 363 285 135 37 9 8 0 0 0 0 0 0 0 0 0 0 0 0 0 0 0 0 0 0 0 0 0 0 0 0 0 0 147 448 631 318
119 125 216 230 266 116 133 129 8 0 0 0 0 0 0 0 0 0 0 0 0 0 0 0 0 0 0 0 0 0 0 0 0 0 0 0 0 0 0 0 0 600 651
171 246 284 257 48 33 5 0 0 0 0 0 0 0 0 0 0 0 0 0 0 0 0 0 0 0 0 0 0 0 0 0 0 0 0 0 0 0 0 0 0 0 666
177 200 178 62 14 1 0 0 0 0 0 0 0 0 0 0 0 0 0 0 0 0 0 0 0 0 0 0 0 0 0 0 0 0 0 0 0 0 0 0 0 0 0
216 220 234 85 0 0 0 0 0 0 0 0 0 0 0 0 0 0 0 0 0 0 0 0 0 0 0 0 0 0 0 0 0 0 0 0 0 0 0 0 0 0 0
112 121 159 0 0 0 0 0 0 0 0 0 0 0 0 0 0 0 0 0 0 0 0 0 0 0 0 0 0 0 0 0 0 0 0 0 0 0 0 0 0 0 0
0 0 0 0 0 0 0 0 0 0 0 0 0 0 0 0 0 0 0 0 0 0 0 0 0 0 0 0 0 0 0 0 0 0 0 0 0 0 0 0 0 0 0
0 0 0 0 0 0 0 0 0 0 0 0 0 0 0 0 0 0 0 0 0 0 0 0 0 0 0 0 0 0 0 0 0 0 0 0 0 0 0 0 0 0 0
0 0 0 0 0 0 0 0 0 0 0 0 0 0 0 0 0 0 0 0 0 0 0 0 0 0 0 0 0 0 0 0 0 0 0 0 0 0 0 0 0 0 0
0 0 0 0 0 0 0 0 0 0 0 0 0 0 0 0 0 0 0 0 0 0 0 0 0 0 0 0 0 0 0 0 0 0 0 0 0 0 0 0 0 0 0
0 0 0 0 0 0 0 0 0 0 0 0 0 0 0 0 0 0 0 0 0 0 0 0 0 0 0 0 0 0 0 0 0 0 0 0 0 0 0 0 0 0 0
0 0 0 0 0 0 0 0 0 0 0 0 0 0 0 0 0 0 0 0 0 0 0 0 0 0 0 0 0 0 0 0 0 0 0 0 0 0 0 0 0 0 0
0 0 0 0 0 0 0 0 0 0 0 0 0 0 0 0 0 0 0 0 0 0 0 0 0 0 0 0 0 0 0 0 0 0 0 0 0 0 0 0 0 0 0
0 0 0 0 0 0 0 0 0 0 0 0 0 0 0 0 0 0 0 0 0 0 0 0 0 0 0 0 0 0 0 0 0 0 0 0 0 0 0 0 0 0 0
0 0 0 0 0 0 0 0 0 0 0 0 0 0 0 0 0 0 0 0 0 0 0 0 0 0 0 0 0 0 0 0 0 0 0 0 0 0 0 0 0 0 0
0 0 0 0 0 0 0 0 0 0 0 0 0 0 0 0 0 0 0 0 0 0 0 0 0 0 0 0 0 0 0 0 0 0 0 0 0 0 0 0 0 0 0
0 0 0 0 0 0 0 0 0 0 0 0 0 0 0 0 0 0 0 0 0 0 0 0 0 0 0 0 0 0 0 0 0 0 0 0 0 0 0 0 0 0 0
CIN
0 -13 0 0 -72 0 0 0 0 0 0 -91 -21 -150 -13 -120 -4 0 0 0 0 0 0 0 0 0 0 0 -3 -10 -6 -3 -1 -83 -174 -228 -146 -9 0 -4 0 0 0
-107 -6 0 -5 -50 0 0 0 0 0 0 0 0 0 0 0 0 -89 -14 -3 0 0 0 0 0 0 0 0 -17 -12 -6 -4 -3 -29 -190 0 -147 -212 -16 -20 -36 0 0
-201 -21 -3 -17 0 0 0 0 0 0 0 0 0 0 0 0 0 0 0 0 0 -11 -1 0 0 0 0 0 -12 -22 -13 -11 -11 -28 -101 -7 0 0 -101 -112 -131 -2 0
-119 -52 -14 -71 -80 -49 0 0 0 0 0 0 0 0 0 0 0 0 0 0 0 0 -9 -10 0 0 0 0 -10 -19 -15 -16 -12 -41 -73 -118 -103 -130 -190 -164 -151 -95 -12
-97 -73 -65 -72 -78 -5 0 0 0 0 0 0 0 0 0 0 0 0 0 0 0 0 0 0 -12 -12 -23 -1 -14 -25 -22 -21 -25 -35 -118 -36 -71 -46 -80 -140 -134 -54 -33
-124 -72 -37 -60 -50 -125 -105 0 0 0 0 0 0 0 0 0 0 0 0 0 0 0 0 0 0 0 0 0 -35 -47 -36 -49 -118 -48 -73 -55 -49 -14 -35 -63 -110 -90 -8
-140 -80 -65 -38 -25 -9 -54 -132 0 -36 -16 -19 0 0 0 -11 -15 -32 -1 -6 -16 0 0 0 0 0 0 0 0 0 0 0 0 -75 -74 -48 -29 -4 -4 -21 -55 -90 -77
0 -71 -68 -31 -10 0 0 -11 -2 -4 -3 -5 -10 -48 -31 -33 -10 -47 -54 -6 -9 0 0 0 0 0 0 0 0 0 0 0 0 -97 -51 -33 -21 -12 -1 -3 -15 -34 -63
-92 -89 -137 -48 -17 0 0 0 -3 -1 -12 -12 -7 -24 -11 -14 0 0 0 0 0 0 0 0 0 0 0 0 0 0 0 0 0 0 -90 -204 -83 -14 -10 -9 -4 -16 -18
-97 -176 -120 -73 -56 -23 -2 -10 -16 -46 -16 -14 -11 0 0 0 0 0 0 0 0 0 0 0 0 0 0 0 0 0 0 0 0 0 0 0 0 0 0 -51 -10 -4 -13
-110 -117 -76 -79 -67 -136 -101 -62 -11 0 0 0 0 0 0 0 0 0 0 0 0 0 0 0 0 0 0 0 0 0 0 0 0 0 0 0 0 0 0 0 0 -5 -2
-66 -79 -74 -96 -102 -112 -38 0 0 0 0 0 0 0 0 0 0 0 0 0 0 0 0 0 0 0 0 0 0 0 0 0 0 0 0 0 0 0 0 0 0 0 -7
-89 -108 -104 -130 -79 -22 0 0 0 0 0 0 0 0 0 0 0 0 0 0 0 0 0 0 0 0 0 0 0 0 0 0 0 0 0 0 0 0 0 0 0 0 0
-84 -90 -52 -72 0 0 0 0 0 0 0 0 0 0 0 0 0 0 0 0 0 0 0 0 0 0 0 0 0 0 0 0 0 0 0 0 0 0 0 0 0 0 0
-55 -93 -64 0 0 0 0 0 0 0 0 0 0 0 0 0 0 0 0 0 0 0 0 0 0 0 0 0 0 0 0 0 0 0 0 0 0 0 0 0 0 0 0
0 0 0 0 0 0 0 0 0 0 0 0 0 0 0 0 0 0 0 0 0 0 0 0 0 0 0 0 0 0 0 0 0 0 0 0 0 0 0 0 0 0 0
0 0 0 0 0 0 0 0 0 0 0 0 0 0 0 0 0 0 0 0 0 0 0 0 0 0 0 0 0 0 0 0 0 0 0 0 0 0 0 0 0 0 0
0 0 0 0 0 0 0 0 0 0 0 0 0 0 0 0 0 0 0 0 0 0 0 0 0 0 0 0 0 0 0 0 0 0 0 0 0 0 0 0 0 0 0
0 0 0 0 0 0 0 0 0 0 0 0 0 0 0 0 0 0 0 0 0 0 0 0 0 0 0 0 0 0 0 0 0 0 0 0 0 0 0 0 0 0 0
0 0 0 0 0 0 0 0 0 0 0 0 0 0 0 0 0 0 0 0 0 0 0 0 0 0 0 0 0 0 0 0 0 0 0 0 0 0 0 0 0 0 0
0 0 0 0 0 0 0 0 0 0 0 0 0 0 0 0 0 0 0 0 0 0 0 0 0 0 0 0 0 0 0 0 0 0 0 0 0 0 0 0 0 0 0
0 0 0 0 0 0 0 0 0 0 0 0 0 0 0 0 0 0 0 0 0 0 0 0 0 0 0 0 0 0 0 0 0 0 0 0 0 0 0 0 0 0 0
0 0 0 0 0 0 0 0 0 0 0 0 0 0 0 0 0 0 0 0 0 0 0 0 0 0 0 0 0 0 0 0 0 0 0 0 0 0 0 0 0 0 0
0 0 0 0 0 0 0 0 0 0 0 0 0 0 0 0 0 0 0 0 0 0 0 0 0 0 0 0 0 0 0 0 0 0 0 0 0 0 0 0 0 0 0
0 0 0 0 0 0 0 0 0 0 0 0 0 0 0 0 0 0 0 0 0 0 0 0 0 0 0 0 0 0 0 0 0 0 0 0 0 0 0 0 0 0 0
0 0 0 0 0 0 0 0 0 0 0 0 0 0 0 0 0 0 0 0 0 0 0 0 0 0 0 0 0 0 0 0 0 0 0 0 0 0 0 0 0 0 0
Wind_Speed
16 16 16 16 18 19 19 19 20 19 20 20 21 22 21 21 22 23 23 24 24 24 25 25 25 25 26 26 26 26 27 27 26 28 29 30 27 25 24 22 21 26 27
17 16 16 16 17 18 19 19 19 19 19 20 20 20 21 21 21 21 22 22 22 23 23 23 24 24 25 25 24 24 25 25 25 25 27 28 26 25 23 21 19 20 21
17 16 16 17 17 17 18 18 19 19 19 19 20 20 21 21 21 21 21 21 21 22 23 23 23 23 23 24 23 22 23 23 24 22 25 26 27 24 23 21 19 18 19
17 17 16 16 17 17 17 18 18 18 18 19 19 20 20 21 21 21 21 21 21 21 21 22 22 23 23 23 22 22 22 22 21 21 22 24 25 24 23 21 20 19 17
16 16 16 16 16 16 16 17 17 18 18 18 19 19 20 20 20 21 21 21 21 21 21 22 22 22 22 22 22 21 21 21 22 19 20 22 23 23 22 22 20 19 18
15 15 15 15 16 16 16 16 17 17 18 18 19 19 20 20 20 20 21 21 21 21 22 22 22 22 22 22 22 22 21 20 21 18 19 20 21 21 21 21 20 19 18
14 15 15 15 16 16 17 17 17 17 18 19 19 19 19 19 20 20 21 21 21 21 22 22 22 22 22 22 22 22 21 20 21 17 18 19 20 20 19 19 19 18 18
14 14 14 14 15 15 16 16 16 16 17 18 18 18 19 19 20 21 21 21 21 21 22 22 22 22 22 22 22 22 22 20 20 18 18 18 18 19 18 18 17 17 17
13 13 13 13 13 14 14 15 16 17 17 17 17 17 18 18 19 20 20 20 21 21 22 22 22 23 23 22 22 22 22 21 20 19 17 18 18 18 18 18 17 16 16
12 12 12 12 12 13 13 14 15 16 17 17 17 17 17 18 19 19 19 20 20 22 22 23 23 23 23 22 22 23 23 22 23 17 16 17 18 20 19 19 19 16 15
10 11 11 11 12 12 12 14 14 15 16 16 15 15 17 17 18 19 19 20 21 21 22 23 23 24 24 23 24 24 23 23 22 17 18 19 20 20 20 20 20 20 16
8 8 9 9 11 11 11 13 13 15 16 17 16 14 17 17 16 18 20 20 21 22 22 23 24 24 24 24 24 24 24 24 23 19 19 20 21 21 21 21 21 21 20
7 6 9 10 10 11 11 11 13 14 16 17 16 16 16 17 17 18 19 20 21 22 22 23 24 25 25 25 25 25 26 25 24 22 20 20 22 23 23 23 23 22 21
6 8 6 8 9 11 11 11 12 13 15 16 16 16 15 16 17 17 19 20 21 22 23 24 25 25 26 27 27 27 27 27 26 26 24 25 24 24 25 25 24 24 23
5 6 6 7 9 11 12 11 12 13 14 14 15 15 15 15 16 17 18 19 21 22 23 24 26 27 28 29 29 29 30 29 29 28 28 29 27 26 25 24 25 24 24
7 8 7 8 9 11 11 12 13 13 13 13 14 14 15 15 15 16 17 19 21 22 23 25 27 28 30 31 32 32 32 31 31 31 31 30 30 28 26 26 25 24 26
5 6 7 8 9 10 11 11 12 12 12 12 12 13 14 15 15 15 17 19 21 22 24 26 28 30 32 33 35 35 34 33 34 34 33 31 29 29 28 26 26 26 28
4 5 7 8 8 9 10 11 11 10 10 11 11 12 13 14 14 16 17 19 21 23 25 28 30 33 35 36 37 36 35 36 35 34 32 33 32 30 29 28 25 25 28
4 5 8 6 6 8 10 10 9 9 10 10 10 11 12 13 15 16 18 20 22 25 27 30 32 34 36 38 38 37 37 36 35 34 33 32 31 31 26 25 23 25 25
4 5 6 7 6 7 9 9 10 10 10 10 9 10 11 12 14 17 19 22 24 27 29 31 33 35 36 39 39 40 39 37 32 30 27 28 28 27 26 27 27 27 26
3 4 5 6 5 6 9 8 10 10 10 10 9 9 11 12 15 18 20 23 25 29 30 33 35 37 39 38 40 41 38 33 33 28 29 31 30 32 32 31 30 30 29
2 3 4 4 4 5 8 8 10 9 10 9 9 10 12 14 17 19 22 25 27 30 32 34 36 38 37 38 38 41 40 37 26 36 38 33 37 35 35 35 36 34 31
4 3 2 2 2 4 6 9 12 13 14 13 12 13 15 16 18 20 23 26 28 29 33 35 36 37 40 37 36 37 40 40 46 33 36 38 35 40 40 38 37 37 35
5 4 2 2 2 3 6 8 11 13 15 16 18 19 19 19 20 22 24 25 28 29 33 35 35 37 38 43 38 33 34 39 45 49 37 37 40 37 37 37 37 37 37
5 4 4 3 4 5 6 8 11 15 17 20 23 23 22 20 21 24 25 26 29 31 32 34 37 38 37 38 39 39 38 39 39 45 54 47 41 39 39 39 39 39 39
6 6 6 8 11 11 10 11 14 17 19 22 24 25 25 24 24 24 25 27 30 33 35 37 38 39 39 39 38 38 40 42 43 43 48 49 50 46 42 42 42 42 42
Wind_Direction
63 69 60 51 44 41 38 36 33 31 29 27 24 25 24 22 23 27 29 29 30 31 31 34 33 31 28 28 28 32 31 32 38 31 30 29 24 18 20 15 13 35 48
71 66 58 51 45 42 36 34 32 31 30 28 26 24 24 24 23 24 23 22 20 23 24 25 26 26 25 22 17 19 21 22 37 35 34 27 21 20 15 13 9 11 21
69 64 60 51 47 42 35 32 32 34 32 30 28 27 26 25 24 24 23 22 21 21 20 23 23 22 20 18 13 5 5 8 9 55 38 31 23 16 15 10 8 5 9
72 67 60 52 47 41 35 34 35 34 33 30 29 28 28 28 27 26 25 23 21 21 20 18 18 19 17 12 7 2 0 359 348 23 39 29 25 18 15 12 10 8 4
67 63 56 50 43 37 34 34 35 32 30 29 28 27 27 28 26 25 24 22 21 19 18 16 15 12 10 7 1 351 339 339 349 25 32 28 25 18 15 15 11 8 5
61 55 52 47 43 40 38 36 35 33 31 31 30 28 28 26 24 22 22 21 21 19 17 15 13 11 8 5 360 347 337 330 342 19 24 23 18 14 12 12 13 11 7
58 52 50 50 47 45 39 38 39 39 37 33 31 29 28 25 23 24 22 25 24 19 15 12 9 8 6 4 359 350 332 332 336 8 17 18 15 9 5 4 5 5 5
59 57 51 49 46 44 38 39 38 36 31 27 29 30 24 24 24 20 19 17 16 14 10 7 5 4 2 359 354 348 340 331 339 3 5 5 9 3 354 358 358 358 357
62 66 61 51 44 34 35 33 31 32 31 28 26 24 18 15 13 10 10 10 9 4 1 359 359 356 347 346 346 343 337 332 331 344 358 351 352 351 343 332 347 355 357
66 65 59 51 38 32 35 33 26 22 21 24 27 23 20 15 12 9 8 6 2 359 355 352 350 352 349 347 337 332 331 331 324 351 356 350 348 346 338 327 318 336 346
59 68 65 58 44 43 31 24 24 22 22 21 23 27 19 16 13 12 7 359 359 359 355 355 350 346 343 340 337 334 335 336 339 350 340 339 336 336 335 328 318 311 327
77 68 61 49 43 31 30 26 22 13 11 8 14 21 14 15 17 10 1 1 358 357 356 353 351 348 344 341 338 336 334 332 335 342 341 335 331 326 324 322 319 313 308
97 62 73 61 45 31 26 26 17 11 7 5 7 11 12 13 12 7 5 2 359 357 357 354 352 348 344 341 336 334 330 327 326 332 334 334 328 322 319 313 310 310 307
87 82 62 51 46 21 25 13 14 15 7 3 5 7 8 7 7 6 4 1 359 357 356 354 352 348 343 338 336 331 328 325 322 321 320 318 323 321 316 312 308 304 302
65 56 51 52 29 21 19 20 15 11 8 7 8 10 11 9 8 6 4 1 358 357 355 351 348 345 341 336 332 328 324 321 318 315 312 309 312 314 315 314 310 307 303
70 50 46 40 28 26 15 9 8 8 10 11 10 11 11 10 9 6 2 359 356 354 351 348 345 341 337 334 329 325 320 318 317 314 311 309 308 310 311 309 310 310 305
64 50 30 27 29 21 12 9 7 7 12 13 11 8 8 7 5 3 359 355 352 350 347 345 341 339 334 331 327 324 321 319 315 312 311 310 311 310 311 310 309 306 304
54 24 9 9 23 16 8 6 7 11 13 13 11 6 2 360 360 357 352 349 347 344 342 340 336 334 331 328 325 323 320 316 313 313 312 308 308 308 308 308 310 309 306
28 20 3 20 20 13 7 11 10 12 8 7 4 1 358 354 353 348 344 343 341 339 337 334 332 331 329 326 324 323 320 317 315 314 313 312 310 309 312 313 313 311 311
30 23 9 8 18 13 10 9 4 2 1 358 357 356 354 348 344 340 338 336 335 334 332 331 330 329 328 325 322 318 318 317 316 319 321 321 321 321 319 315 311 309 307
30 18 2 359 13 9 358 0 353 345 348 348 351 352 348 341 338 335 333 331 330 328 328 328 327 325 324 326 321 318 318 320 317 319 316 315 315 312 311 312 313 311 306
10 10 14 5 5 359 355 354 348 345 340 339 339 338 335 330 328 327 326 326 326 325 325 325 325 323 324 325 321 318 314 316 316 314 309 311 309 310 308 307 305 305 307
3 12 44 27 3 8 0 350 348 350 344 335 330 327 325 325 324 323 323 322 323 323 322 323 323 322 320 322 321 317 311 307 307 313 310 307 308 305 305 304 303 302 302
359 23 37 29 31 360 351 341 332 328 325 325 323 321 318 318 318 319 319 320 320 321 320 321 322 321 319 315 317 316 312 308 305 301 307 307 305 306 306 306 305 304 302
8 3 4 354 336 336 333 331 328 326 325 325 325 322 321 321 318 319 319 320 319 320 321 321 320 318 318 315 313 312 311 309 307 301 297 301 303 303 303 302 302 301 301
5 5 354 346 343 336 330 325 322 321 321 320 321 322 323 323 325 328 327 324 323 321 320 319 318 316 315 313 312 310 308 305 304 303 300 300 298 299 301 300 300 299 298